Погода в Берёзе

Беларусь     52°32′04″N   24°59′04″E
темп.,
°C
ветер,
м/с
пор.,
м/с
влажн.,
%
обл.,
%
осадки,
мм/ч
давл.,
гПа
погр.,
м
11 мая, вт
вт1100:00+11юв4128618 0.0 1021212
03:00+9юв4119237 0.0 1021193
06:00+8вюв411945 0.0 1022196
09:00+14юв611735 0.0 1021443
12:00+18юв79625 0.0 10211050
15:00+19юв68491 0.0 10191253
18:00+18вюв69575 0.0 1018927
21:00+13вюв513735 0.0 1018263
12 мая, ср
ср1200:00+11вюв5127916 0.0 1018239
03:00+10вюв411885 0.0 1017199
06:00+9в411962 0.0 1017212
09:00+14вюв8118017 0.0 1017644
12:00+15вюв810571 0.0 10161146
15:00+16вюв810562 0.0 10161469
18:00+16вюв710630 0.0 10151444
21:00+11вюв49776 0.0 1014227
13 мая, чт
чт1300:00+8вюв33875 0.0 101332
03:00+7вюв2290100 0.0 101130
06:00+6в339383 0.0 101059
09:00+11вюв467983 0.0 1008489
12:00+13юв4671100 0.9 10071045
15:00+14юв5763100 1.7 10051292
18:00+12юв41084100 0.9 1005653
21:00+10юв51194100 1.0 1004575
14 мая, пт
пт1400:00+9вюв51097100 0.3 1003460
03:00+10юв41099100 2.1 1002389
06:00+11ююв71394100 1.1 1001672
09:00+13ю71187100 1.1 1003666
12:00+17ю577253 0.6 10031188
15:00+16ююз3780100 1.8 1004647
18:00+15зюз3679100 1.0 1004646
21:00+12ююз3489100 1.0 100453
15 мая, сб
сб1500:00+8юз34947 0.0 100661
03:00+8ююз3596100 0.0 1006155
06:00+10ююз2696100 0.1 1006325
09:00+11зюз4794100 0.1 1007730
12:00+13зюз568492 0.2 1009759
15:00+15юз566993 0.3 10091189
18:00+16зюз456827 0.3 10091124
21:00+12юз338415 0.4 100927